Walla Walla, WA
on Thursday, November 8, 2012

Thursday
Previous Day Next Day
Daily Summary
 ActualAverage (KPDT)Record (KPDT)
Temperature
Mean Temperature °F 44°F  
Max Temperature 39°F 53°F 68°F (1995)
Min Temperature 33°F 35°F 20°F (1936)
Degree Days
Heating Degree Days 29 21  
Month to date heating degree days 159  
Since 1 July heating degree days 701  
Cooling Degree Days 0 0  
Month to date cooling degree days 0  
Year to date cooling degree days 636  
Moisture
Dew Point 33°F   
Average Humidity 82    
Maximum Humidity 93    
Minimum Humidity 65    
Precipitation
Precipitation 0.00 in 0.05 in 0.71 in (1963)
Month to date precipitation 0.39  
Year to date precipitation 10.06  
Snow
Snow 0.00 in 0.00 in 0.40 in (1966)
Month to date snowfall 0.1  
Year to date snowfall 7.9  
Since 1 July snowfall 0.2  
Snow Depth in   
Wind
Wind Speed 6 mph   
Max Wind Speed 13 mph   
Max Gust Speed mph   
Visibility 9 miles   
Events     

Key: T is trace of precipitation, MM is missing value
Source: NWS Daily Summary
Time(PST)TemperatureDew PointHumidity Pressure Visibility Wind DirectionWind SpeedGust SpeedPrecipitationEvents Conditions
12:53 AM 39.9°F 28.9°F 65% 29.93 in 10.0 miles Calm Calm - N/A   Clear
1:53 AM 37.0°F 28.9°F 73% 29.91 in 10.0 miles East 3.5 mph - N/A   Clear
2:53 AM 36.0°F 28.9°F 76% 29.89 in 10.0 miles SSE 3.5 mph - N/A   Clear
3:53 AM 37.0°F 28.9°F 73% 29.86 in 10.0 miles SSE 3.5 mph - N/A   Clear
4:53 AM 36.0°F 28.9°F 76% 29.84 in 10.0 miles SSE 3.5 mph - N/A   Clear
5:53 AM 36.0°F 30.0°F 79% 29.82 in 10.0 miles South 4.6 mph - N/A   Clear
6:53 AM 35.1°F 30.0°F 82% 29.81 in 10.0 miles South 8.1 mph - N/A   Clear
7:53 AM 35.1°F 32.0°F 89% 29.81 in 10.0 miles South 5.8 mph - N/A   Mostly Cloudy
8:08 AM 33.8°F 32.0°F 93% 29.79 in 8.0 miles SSW 6.9 mph - N/A   Overcast
8:53 AM 35.1°F 33.1°F 92% 29.80 in 3.0 miles SSW 5.8 mph - N/A   Overcast
9:02 AM 35.6°F 33.8°F 93% 29.77 in 2.0 miles South 5.8 mph - N/A   Overcast
9:17 AM 35.6°F 33.8°F 93% 29.77 in 4.0 miles South 8.1 mph - N/A   Overcast
9:53 AM 36.0°F 34.0°F 93% 29.79 in 3.0 miles South 8.1 mph - N/A   Overcast
10:31 AM 37.4°F 33.8°F 87% 29.76 in 6.0 miles SSW 6.9 mph - N/A   Overcast
10:53 AM 37.0°F 34.0°F 89% 29.78 in 9.0 miles SW 9.2 mph - N/A   Overcast
11:53 AM 37.9°F 34.0°F 86% 29.77 in 10.0 miles SW 8.1 mph - N/A   Overcast
12:53 PM 39.0°F 35.1°F 86% 29.77 in 10.0 miles WSW 6.9 mph - N/A   Overcast
1:30 PM 39.2°F 33.8°F 81% 29.74 in 10.0 miles SW 4.6 mph - N/A   Overcast
1:53 PM 39.0°F 34.0°F 82% 29.77 in 10.0 miles SW 6.9 mph - N/A   Overcast
2:25 PM 39.2°F 35.6°F 87% 29.75 in 10.0 miles SSW 9.2 mph - N/A   Overcast
2:53 PM 39.9°F 35.1°F 83% 29.78 in 9.0 miles South 9.2 mph - N/A   Overcast
3:04 PM 39.2°F 33.8°F 81% 29.76 in 9.0 miles South 6.9 mph - N/A   Overcast
3:49 PM 39.2°F 35.6°F 87% 29.76 in 6.0 miles South 9.2 mph - N/A   Haze
3:53 PM 39.9°F 35.1°F 83% 29.78 in 7.0 miles South 10.4 mph - N/A   Overcast
4:53 PM 39.9°F 34.0°F 79% 29.77 in 10.0 miles South 10.4 mph - N/A   Overcast
5:53 PM 39.0°F 34.0°F 82% 29.78 in 10.0 miles SSW 9.2 mph - N/A   Overcast
6:48 PM 39.2°F 33.8°F 81% 29.76 in 10.0 miles South 12.7 mph - N/A   Overcast
6:53 PM 39.9°F 33.1°F 77% 29.79 in 10.0 miles South 10.4 mph - N/A   Overcast
7:31 PM 37.4°F 33.8°F 87% 29.75 in 10.0 miles South 8.1 mph - N/A   Scattered Clouds
7:53 PM 37.9°F 32.0°F 79% 29.78 in 10.0 miles South 8.1 mph - N/A   Clear
8:53 PM 39.9°F 33.1°F 77% 29.79 in 10.0 miles South 10.4 mph - N/A   Overcast
9:53 PM 39.9°F 33.1°F 77% 29.79 in 10.0 miles South 5.8 mph - N/A   Overcast
10:03 PM 39.2°F 33.8°F 81% 29.76 in 10.0 miles SSW 6.9 mph - N/A   Overcast
10:53 PM 39.9°F 33.1°F 77% 29.79 in 10.0 miles SSW 6.9 mph - N/A   Overcast
11:53 PM 39.9°F 34.0°F 79% 29.80 in 10.0 miles SW 3.5 mph - N/A   Overcast
Moon Phase
Nov. 08 Nov. 13 Nov. 20 Nov. 28 Dec. 06
Sunrise:06:44 AM (PST) Moon Rise:12:26 AM (PST)11/8
Sunset:04:28 PM (PST) Moon Set:01:28 PM (PST)11/8

Copyright © 2014 The Weather Underground, Inc.